This is the latest recevied weather packets stored in our database for station/object K1LVA. If no packets are shown the sender has not sent any weather packets the latest 10 day(s).
| Time | Temp. | Humidity | Pressure | Rain* | Wind** | Luminosity | Snow |
|---|---|---|---|---|---|---|---|
| 1777492100 | 26.67° C | 66% | 1011.1 hPa | 0 mm | - | 236 W/m² | - |
| 1777491796 | 26.11° C | 66% | 1011 hPa | 0 mm | - | 253 W/m² | - |
| 1777491493 | 26.11° C | 66% | 1011.2 hPa | 0 mm | - | 215 W/m² | - |
| 1777491190 | 26.11° C | 66% | 1011.2 hPa | 0 mm | - | 187 W/m² | - |
| 1777490886 | 26.11° C | 65% | 1011.3 hPa | 0 mm | - | 155 W/m² | - |
| 1777490582 | 26.67° C | 65% | 1011.4 hPa | 0 mm | - | 161 W/m² | - |
| 1777490278 | 26.67° C | 64% | 1011.3 hPa | 0 mm | - | 204 W/m² | - |
| 1777489976 | 27.22° C | 63% | 1011.3 hPa | 0 mm | - | 312 W/m² | - |
| 1777489674 | 26.67° C | 65% | 1011.6 hPa | 0 mm | - | 888 W/m² | - |
| 1777489370 | 26.67° C | 65% | 1011.6 hPa | 0 mm | - | 529 W/m² | - |
| 1777489067 | 26.67° C | 67% | 1011.5 hPa | 0 mm | - | 861 W/m² | - |
| 1777488763 | 26.67° C | 69% | 1011.5 hPa | 0 mm | - | 353 W/m² | - |
| 1777488461 | 26.11° C | 71% | 1011.6 hPa | 0 mm | - | 546 W/m² | - |
| 1777488159 | 26.11° C | 70% | 1011.8 hPa | 0 mm | - | 431 W/m² | - |
| 1777487857 | 26.11° C | 70% | 1011.8 hPa | 0 mm | - | 436 W/m² | - |
| 1777487556 | 25.56° C | 71% | 1012 hPa | 0 mm | - | 379 W/m² | - |
| 1777487252 | 25.56° C | 71% | 1012.4 hPa | 0 mm | - | 252 W/m² | - |
| 1777486949 | 25.56° C | 71% | 1011.9 hPa | 0 mm | - | 365 W/m² | - |
| 1777486645 | 25.56° C | 69% | 1012.2 hPa | 0 mm | - | 308 W/m² | - |
| 1777486343 | 25.56° C | 71% | 1012.2 hPa | 0 mm | - | 832 W/m² | - |
| 1777486040 | 25.56° C | 72% | 1012.3 hPa | 0 mm | - | 466 W/m² | - |
| 1777485737 | 25° C | 73% | 1012.3 hPa | 0 mm | - | 884 W/m² | - |
| 1777485432 | 25° C | 74% | 1012.7 hPa | 0 mm | - | 256 W/m² | - |
| 1777485128 | 25° C | 74% | 1012.7 hPa | 0 mm | - | 368 W/m² | - |
| 1777484825 | 24.44° C | 75% | 1012.7 hPa | 0 mm | - | 454 W/m² | - |
* Rain latest hour (hover to see other rain measurements)
** Current wind speed in m/s (hover to see current wind gust speed)